Date,TemperatureHighF,TemperatureAvgF,TemperatureLowF,DewpointHighF,DewpointAvgF,DewpointLowF,HumidityHigh,HumidityAvg,HumidityLow,PressureMaxIn,PressureMinIn,WindSpeedMaxMPH,WindSpeedAvgMPH,GustSpeedMaxMPH,PrecipitationSumIn
2013-1-1,50,48,45,47,40,28,92,75,46,29.98,29.80,13,2,13,0.56
2013-1-2,54,49,45,46,44,41,94,84,66,30.01,29.76,7,1,7,0.09
2013-1-3,47,42,34,42,38,27,93,87,68,30.13,29.95,8,1,8,0.00
2013-1-4,54,38,27,32,25,18,84,60,39,30.19,30.08,8,1,8,0.00
2013-1-5,49,38,24,31,25,18,83,61,43,30.24,30.07,6,1,6,0.01
2013-1-6,56,46,40,44,36,29,79,70,58,30.09,29.91,8,2,8,0.00
2013-1-7,55,41,30,34,28,23,81,62,40,30.26,30.06,7,1,7,0.00
2013-1-8,54,40,26,41,32,22,88,75,59,30.30,30.20,5,0,5,0.00
2013-1-9,64,54,46,54,47,39,88,76,68,30.30,30.22,5,0,5,0.00
2013-1-10,68,56,44,54,50,42,94,79,60,30.35,30.20,7,1,7,0.01
2013-1-11,56,50,48,52,48,47,95,94,85,30.20,30.02,8,2,8,0.39
2013-1-12,73,60,50,66,57,49,96,88,65,30.03,29.96,12,1,12,0.01
2013-1-13,71,61,54,63,58,52,95,88,73,30.01,29.92,9,2,9,0.01
2013-1-14,67,62,57,65,60,55,96,93,90,29.99,29.92,11,2,11,0.34
2013-1-15,58,50,44,56,49,42,96,95,92,30.02,29.90,10,3,10,0.32
2013-1-16,51,47,43,49,46,42,96,96,95,29.92,29.82,6,1,6,0.44
2013-1-17,52,47,38,51,46,36,96,95,93,30.06,29.62,19,3,19,1.99
2013-1-18,53,39,30,37,31,25,94,74,50,30.34,30.05,7,1,7,0.00
2013-1-19,55,39,26,36,28,23,92,69,39,30.32,30.03,9,2,9,0.01
2013-1-20,66,48,32,41,32,25,80,56,36,30.03,29.90,11,1,11,0.00
2013-1-21,62,44,29,38,26,16,88,55,25,29.93,29.80,14,2,14,0.00
2013-1-22,46,34,25,19,13,6,63,43,30,30.09,29.88,8,1,8,0.00
2013-1-23,53,35,19,30,20,11,80,57,39,30.18,29.92,13,2,13,0.00
2013-1-24,48,40,26,34,20,1,79,47,16,30.32,29.85,16,4,16,0.00
2013-1-25,29,27,23,24,16,6,84,64,44,30.34,29.95,7,1,7,0.00
2013-1-26,56,38,26,40,30,22,90,76,44,30.18,29.93,4,0,4,0.05
2013-1-27,48,39,29,35,30,26,88,71,57,30.40,30.18,8,1,8,0.00
2013-1-28,53,45,39,45,37,30,87,73,63,30.30,30.11,8,2,8,0.00
2013-1-29,71,58,42,60,52,39,93,81,66,30.11,29.88,10,2,10,0.00
2013-1-30,70,66,62,63,60,59,92,83,77,29.89,29.35,22,6,22,1.04
2013-2-7,46,43,41,40,36,26,94,79,49,30.10,29.85,14,5,14,0.55
2013-2-8,59,47,39,50,39,28,93,75,46,29.98,29.76,13,3,13,0.00
2013-2-9,62,45,35,31,26,23,70,49,25,30.18,29.95,12,1,12,0.00
2013-2-10,60,45,33,43,33,25,90,66,34,30.27,30.01,8,1,8,0.36
2013-2-11,57,51,44,55,48,41,94,91,88,30.03,29.83,14,2,14,0.15
2013-2-12,61,51,44,48,35,26,92,60,28,29.96,29.76,11,1,11,0.12
2013-2-13,44,44,44,41,41,40,89,88,88,29.78,29.70,5,1,5,0.01
2013-2-16,31,29,28,16,15,14,59,55,50,29.90,29.88,9,1,9,0.00
2013-2-17,48,32,20,16,11,7,61,44,22,30.11,29.89,10,1,10,0.00
2013-2-18,58,38,20,28,22,13,84,57,29,30.22,30.05,13,2,13,0.00
2013-2-19,54,43,36,44,32,17,87,66,33,30.06,29.76,14,3,14,0.19
2013-2-20,55,41,27,24,18,13,60,40,27,29.99,29.90,8,1,8,0.00
2013-2-21,61,44,27,37,21,11,79,43,23,30.07,29.94,8,1,8,0.06
2013-2-22,43,39,38,38,36,36,94,91,78,30.12,29.94,9,2,9,0.40
2013-2-23,45,41,37,43,39,36,95,93,90,29.99,29.71,8,1,8,0.39
2013-2-24,67,50,39,47,39,26,95,69,38,29.87,29.71,9,2,9,0.01
2013-2-25,47,42,36,30,28,25,78,56,49,30.02,29.85,13,4,13,0.00
2013-2-26,42,36,32,40,34,30,94,93,79,29.91,29.47,21,5,21,1.36
2013-2-27,58,47,37,40,36,33,92,68,48,29.68,29.52,16,5,16,0.00
2013-2-28,53,43,35,34,28,23,70,55,41,29.77,29.60,15,3,15,0.00
2013-3-1,53,41,32,32,28,24,76,59,43,29.80,29.72,10,2,10,0.00
2013-3-2,48,40,32,38,30,20,89,69,53,29.80,29.70,9,1,9,0.06
2013-3-3,45,34,25,21,18,15,69,52,36,29.88,29.77,16,2,16,0.00
2013-3-4,58,42,29,26,19,14,55,42,22,30.01,29.87,11,2,11,0.00
2013-3-5,54,46,41,44,37,25,93,71,49,29.93,29.52,12,2,12,0.53
2013-3-6,46,38,31,34,25,20,74,58,43,29.97,29.54,16,4,16,0.00
2013-3-7,59,40,26,33,26,20,86,59,31,30.10,29.97,10,2,10,0.00
2013-3-8,63,43,26,30,24,19,79,51,24,30.17,30.05,9,2,9,0.00
2013-3-9,68,47,28,36,28,20,78,50,29,30.21,30.09,8,1,8,0.00
2013-3-10,72,52,36,42,35,28,78,56,31,30.15,30.02,10,1,10,0.00
2013-3-11,70,55,43,53,45,35,89,69,53,30.04,29.70,15,1,15,0.50
2013-3-12,66,57,44,55,44,28,93,68,31,29.88,29.62,12,2,12,0.14
2013-3-13,57,45,33,32,24,18,76,47,23,30.03,29.86,16,3,16,0.00
2013-3-14,36,35,33,20,18,16,51,50,49,30.07,30.03,15,3,15,0.00
2013-3-20,50,47,44,21,17,15,39,30,25,29.70,29.69,8,2,8,0.00
2013-3-21,50,38,30,29,17,10,67,44,28,29.82,29.67,12,2,12,0.00
2013-3-22,52,38,25,25,19,10,70,47,31,29.94,29.82,10,1,10,0.00
2013-3-23,55,45,41,47,37,25,89,72,46,29.90,29.75,5,1,5,0.05
2013-3-24,44,43,40,42,40,38,94,91,85,29.78,29.44,17,3,17,0.94
2013-3-25,47,41,34,38,27,19,93,60,37,29.80,29.43,22,5,22,0.01
2013-3-26,50,38,27,26,23,20,76,56,37,30.05,29.78,14,3,14,0.00
2013-3-27,61,44,34,30,25,20,64,48,28,30.13,30.02,12,2,12,0.00
2013-3-28,66,46,32,31,23,17,67,44,23,30.17,30.04,12,2,12,0.00
2013-3-29,66,46,28,41,28,17,80,54,25,30.20,30.07,12,2,12,0.01
2013-3-30,72,56,44,49,42,37,87,63,35,30.09,29.91,10,1,10,0.01
2013-3-31,72,58,49,58,51,41,92,76,53,29.93,29.72,20,3,20,0.54
2013-4-1,76,62,52,55,44,35,90,57,25,29.85,29.72,17,3,17,0.02
2013-4-2,74,57,42,38,32,24,71,42,21,30.02,29.85,11,2,11,0.00
2013-4-3,66,54,47,32,26,18,49,34,24,30.13,29.98,14,2,14,0.00
2013-4-4,51,42,36,36,31,24,93,69,42,30.11,29.84,14,4,14,0.31
2013-4-5,69,50,34,47,39,32,94,69,36,29.93,29.77,10,2,10,0.00
2013-4-10,87,77,67,61,56,53,63,49,39,29.89,29.83,9,2,9,0.00
2013-4-11,83,70,59,64,60,53,88,71,48,29.86,29.61,13,2,13,0.00
2013-4-12,80,69,57,65,53,36,94,63,28,29.72,29.55,22,5,22,0.00
2013-4-13,83,65,50,47,41,36,61,43,24,29.90,29.72,8,1,8,0.00
2013-4-14,76,57,44,51,43,35,83,62,38,29.96,29.85,10,1,10,0.24
2013-4-15,74,61,54,62,56,51,95,83,58,30.08,29.84,7,2,7,0.17
2013-4-16,86,69,58,66,59,55,89,72,46,30.16,30.06,8,1,8,0.00
2013-4-17,88,67,59,66,60,56,93,81,46,30.12,29.98,11,1,11,0.21
2013-4-18,86,69,58,67,61,56,95,78,47,30.03,29.85,10,1,10,0.01
2013-4-19,73,63,51,66,59,48,91,87,76,29.85,29.66,19,4,19,0.45
2013-4-20,72,55,42,48,34,27,89,49,24,30.13,29.81,13,2,13,0.00
2013-4-21,66,54,39,41,36,30,77,53,31,30.28,30.13,14,3,14,0.00
2013-4-22,65,53,44,41,37,34,79,58,34,30.26,30.08,15,3,15,0.00
2013-4-23,80,58,43,52,42,33,76,57,33,30.13,29.97,10,2,10,0.00
2013-4-24,76,62,48,59,53,44,91,73,49,30.01,29.90,15,3,15,0.00
2013-4-25,80,64,50,58,42,28,89,50,21,30.16,29.94,10,2,10,0.00
2013-4-26,80,62,45,46,37,28,63,41,24,30.29,30.15,11,1,11,0.00
2013-4-27,64,56,53,56,50,43,95,81,57,30.22,30.11,5,1,5,0.56
2013-4-28,54,53,51,52,51,49,96,95,94,30.12,29.91,8,1,8,2.21
2013-4-29,79,63,53,65,57,52,97,83,55,29.93,29.81,12,1,12,0.10
2013-4-30,82,64,51,66,57,49,96,81,47,30.04,29.85,7,1,8,0.00
2013-5-1,69,61,55,57,55,52,92,80,65,30.14,30.04,14,4,14,0.00
2013-5-2,60,58,56,57,55,54,95,91,86,30.15,30.09,11,4,11,0.05
2013-5-3,66,58,55,57,54,52,95,86,70,30.09,29.95,13,4,13,0.08
2013-5-4,58,54,50,53,48,42,95,82,64,29.95,29.81,14,5,14,0.56
2013-5-5,53,51,48,52,50,47,96,95,94,29.84,29.69,15,5,15,3.67
2013-5-6,71,59,49,60,52,44,97,79,51,29.79,29.67,10,2,10,0.01
2013-5-7,77,58,44,56,49,41,94,75,39,29.83,29.74,10,1,10,0.14
2013-5-8,77,64,50,61,54,48,94,73,51,29.91,29.79,12,2,12,0.01
2013-5-9,89,68,53,64,57,50,91,72,36,29.97,29.88,8,1,8,0.16
2013-5-10,83,69,54,69,59,52,94,73,47,29.96,29.84,13,2,13,0.02
2013-5-11,81,71,62,65,60,56,85,70,55,29.85,29.71,14,3,14,0.00
2013-5-12,81,65,53,58,47,33,84,54,29,29.93,29.75,11,2,11,0.00
2013-5-13,77,59,43,42,35,29,72,44,23,30.06,29.93,9,1,9,0.00
2013-5-14,77,56,40,51,39,31,79,54,33,30.13,29.98,8,1,8,0.00
2013-5-18,77,71,67,69,66,64,91,84,76,29.97,29.94,4,0,4,0.08
2013-5-19,79,70,65,68,65,62,93,83,68,29.98,29.89,8,1,8,0.21
2013-5-20,92,75,64,73,66,61,94,77,49,30.01,29.90,6,1,6,0.00
2013-5-21,97,78,64,74,66,62,93,70,39,29.94,29.83,6,1,6,0.00
2013-5-22,92,74,62,73,65,59,91,75,52,29.90,29.75,12,1,12,0.45
2013-5-23,88,72,62,71,63,56,94,75,47,29.86,29.72,10,2,10,0.22
2013-5-24,76,68,56,57,47,37,75,48,29,30.09,29.79,15,3,15,0.00
2013-5-25,82,65,42,50,43,36,85,48,25,30.18,30.05,13,2,13,0.00
2013-5-26,84,67,54,54,49,43,78,56,32,30.17,30.05,8,1,8,0.00
2013-5-27,92,72,53,63,56,48,89,61,36,30.15,30.01,9,1,9,0.00
2013-5-28,91,75,58,67,61,55,89,65,43,30.12,30.03,11,1,11,0.00
2013-5-29,92,77,59,67,62,55,89,63,38,30.13,30.05,8,1,8,0.00
2013-5-30,93,76,60,67,62,57,90,66,39,30.16,30.05,10,1,10,0.00
2013-5-31,94,78,64,70,64,60,88,66,40,30.12,29.99,10,1,10,0.00
2013-6-1,93,79,69,68,65,62,82,64,43,30.03,29.91,12,2,12,0.00
2013-6-2,79,72,66,72,66,63,94,82,72,29.94,29.80,11,2,11,0.68
2013-6-3,87,73,64,75,68,62,95,85,65,29.85,29.75,8,1,8,0.20
2013-6-4,89,75,65,69,66,63,95,75,46,29.95,29.83,11,2,11,0.01
2013-6-5,85,72,67,72,66,64,94,82,65,29.98,29.86,10,2,10,2.32
2013-6-6,77,70,65,73,67,63,95,92,83,29.88,29.70,8,1,8,0.53
2013-6-7,89,72,67,76,68,63,97,87,61,29.74,29.57,11,2,11,0.41
2013-6-8,91,77,65,72,67,63,95,75,50,29.98,29.72,10,1,10,0.00
2013-6-9,91,74,66,75,68,63,93,83,56,30.03,29.92,12,1,12,1.57
2013-6-10,82,73,68,73,68,64,95,86,67,29.96,29.80,13,4,13,0.46
2013-6-11,96,80,68,74,69,65,94,71,42,29.90,29.83,9,2,9,0.02
2013-6-12,98,83,68,76,71,64,88,69,48,29.89,29.82,11,1,11,0.00
2013-6-13,94,82,70,74,70,65,86,69,43,29.82,29.60,17,3,17,0.01
2013-6-14,88,75,64,66,58,54,89,58,37,29.93,29.69,12,2,12,0.00
2013-6-15,92,75,57,65,60,53,89,62,40,30.03,29.93,10,1,10,0.00
2013-6-16,93,77,62,69,64,57,87,65,41,30.04,29.91,10,2,10,0.00
2013-6-17,88,76,67,76,69,64,92,80,63,29.94,29.84,12,2,12,1.05
2013-6-18,88,74,67,75,69,64,94,86,63,29.87,29.69,15,2,15,0.81
2013-6-19,87,75,67,69,66,62,94,75,51,30.00,29.80,9,2,9,0.03
2013-6-20,90,75,65,70,65,62,92,73,48,30.11,29.99,10,2,10,0.00
2013-6-21,89,76,64,67,63,60,91,68,43,30.16,30.06,8,1,8,0.00
2013-6-22,92,77,63,70,64,59,89,67,43,30.12,30.01,9,2,9,0.00
2013-6-23,94,77,67,75,68,63,91,75,49,30.11,30.00,6,1,6,0.24
2013-6-24,94,79,68,77,70,65,94,76,50,30.11,29.99,9,2,9,0.05
2013-6-25,94,79,70,74,70,66,91,74,47,30.04,29.92,11,2,11,0.01
2013-6-26,96,79,69,76,70,66,91,76,49,29.95,29.80,10,2,10,0.00
2013-6-27,94,80,71,77,72,67,92,78,52,29.86,29.64,14,2,14,0.13
2013-6-28,99,82,69,77,71,66,93,71,42,29.71,29.51,19,2,19,0.00
2013-6-29,93,80,68,75,68,64,91,69,42,29.62,29.53,10,2,10,0.00
2013-6-30,93,78,70,76,69,64,87,75,48,29.73,29.60,8,1,8,0.00
2013-7-1,90,77,68,75,69,64,91,77,57,29.86,29.70,13,1,13,1.04
2013-7-2,86,75,68,77,70,65,94,87,69,30.02,29.85,7,1,7,0.54
2013-7-3,90,75,66,77,70,64,94,86,64,30.11,29.99,7,1,7,0.91
2013-7-4,90,72,66,80,69,64,97,91,70,30.11,30.01,13,1,13,3.09
2013-7-5,92,75,68,76,70,67,96,87,55,30.13,30.05,7,1,7,0.37
2013-7-6,91,77,70,78,72,69,95,86,59,30.11,30.00,11,1,11,0.72
2013-7-7,89,78,72,77,72,68,95,82,63,30.07,29.97,8,2,8,0.05
2013-7-8,95,79,72,80,72,67,94,79,54,30.09,30.00,9,1,9,0.02
2013-7-9,96,81,69,78,72,66,94,77,52,30.07,29.95,10,2,10,0.56
2013-7-10,93,78,70,78,71,66,93,82,59,30.03,29.85,14,2,14,0.71
2013-7-11,85,77,71,78,73,68,95,88,75,29.87,29.77,7,1,7,0.01
2013-7-12,92,75,66,76,70,63,95,85,57,29.90,29.78,18,2,18,1.16
2013-7-13,80,71,65,72,68,62,96,89,74,30.01,29.89,13,2,13,0.05
2013-7-14,81,73,69,75,70,67,95,90,76,30.16,29.98,5,2,10,0.63
2013-7-15,89,77,68,76,71,67,96,82,58,30.22,30.13,10,2,10,0.31
2013-7-16,98,84,70,78,72,69,95,73,45,30.21,30.12,5,1,5,0.00
2013-7-17,98,82,69,77,72,67,94,75,49,30.15,30.01,12,1,12,1.01
2013-7-18,97,81,67,81,72,66,95,77,49,30.09,29.96,6,1,6,0.01
2013-7-19,98,83,70,78,73,68,94,74,50,30.02,29.89,9,1,9,0.00
2013-7-20,94,78,72,80,72,68,93,83,59,29.95,29.84,10,2,10,1.82
2013-7-21,99,77,70,80,72,68,95,86,53,29.92,29.84,15,1,15,0.89
2013-7-22,90,78,70,77,72,68,94,81,60,29.91,29.75,13,3,13,0.04
2013-7-23,95,81,68,74,70,66,93,73,46,29.80,29.70,10,2,10,0.00
2013-7-24,96,80,69,75,70,67,92,73,47,29.75,29.67,5,1,7,0.00
2013-7-25,95,76,65,75,68,62,93,78,49,29.91,29.74,28,2,28,1.18
2013-7-26,80,68,65,75,66,63,95,94,83,30.00,29.91,4,1,4,0.01
2013-7-27,88,76,71,77,71,68,94,84,65,29.92,29.80,10,1,10,0.91
2013-7-28,92,78,68,76,69,66,95,77,51,29.91,29.81,12,2,12,0.00
2013-7-29,94,78,64,72,67,62,92,72,48,30.05,29.91,5,1,5,0.00
2013-7-30,92,77,66,74,67,60,89,72,51,30.11,30.02,8,1,8,0.00
2013-7-31,81,74,71,74,70,68,92,87,76,30.06,29.88,6,1,6,0.06
2013-8-1,95,78,71,78,71,69,93,81,58,29.89,29.80,7,2,7,0.04
2013-8-2,95,80,68,74,70,66,93,73,49,29.93,29.82,6,1,6,0.00
2013-8-3,92,80,70,77,70,67,93,73,47,29.93,29.86,7,1,7,0.00
2013-8-4,91,79,69,73,67,60,93,69,49,29.93,29.84,11,2,11,0.00
2013-8-5,93,78,67,75,67,60,88,70,50,29.98,29.87,8,1,8,0.00
2013-8-6,88,76,68,78,70,65,93,82,64,29.96,29.86,11,2,11,1.72
2013-8-7,81,74,71,76,71,69,94,89,81,29.98,29.91,8,1,8,0.46
2013-8-8,88,78,71,77,72,69,95,83,64,29.97,29.91,9,1,9,0.00
2013-8-9,94,79,71,78,73,69,95,83,56,29.99,29.91,12,1,12,0.27
2013-8-10,95,80,71,79,73,66,95,81,55,30.02,29.95,13,2,13,0.00
2013-8-11,97,77,68,79,71,66,94,82,51,30.04,29.96,12,1,12,0.11
2013-8-12,98,79,70,79,73,68,95,82,53,29.99,29.86,12,1,12,0.47
2013-8-13,92,79,71,76,72,67,95,80,56,29.87,29.72,10,3,10,0.04
2013-8-14,85,74,69,70,67,63,93,79,56,29.96,29.77,8,1,8,0.01
2013-8-15,74,68,65,64,61,58,86,77,59,30.02,29.95,8,2,8,0.00
2013-8-16,73,66,61,64,60,58,93,84,69,30.05,29.96,10,2,10,0.18
2013-8-17,70,65,63,63,61,59,94,87,76,30.07,30.01,13,3,13,0.11
2013-8-18,80,70,64,71,66,62,96,88,73,30.11,30.02,5,1,5,0.22
2013-8-19,82,71,67,72,67,65,96,89,69,30.09,29.98,8,1,8,0.98
2013-8-20,84,73,66,73,68,64,95,85,66,30.09,30.00,4,0,4,0.00
2013-8-21,83,74,69,76,70,67,95,90,78,30.13,30.01,5,1,5,0.58
2013-8-22,92,77,68,78,71,67,96,83,54,30.06,29.93,8,1,8,0.00
2013-8-23,95,75,66,77,69,64,95,82,47,29.96,29.86,18,1,18,0.52
2013-8-24,84,72,64,67,63,59,95,76,51,30.18,29.96,14,3,14,0.00
2013-8-25,85,70,60,65,60,56,89,72,44,30.28,30.16,8,2,8,0.01
2013-8-26,89,72,58,68,62,56,94,73,46,30.22,30.02,6,1,6,0.01
2013-8-27,96,77,63,72,66,60,92,72,42,30.05,29.91,6,1,6,0.00
2013-8-28,96,80,68,76,70,64,91,73,49,29.94,29.85,5,1,5,0.00
2013-8-29,96,82,71,76,71,66,91,73,48,29.87,29.80,10,1,10,0.00
2013-8-30,92,79,73,74,71,68,90,76,55,29.96,29.85,8,2,8,0.00
2013-8-31,94,75,68,78,70,66,94,85,57,29.87,29.79,21,1,21,1.77
2013-9-1,91,76,68,78,71,66,96,85,57,29.83,29.72,13,2,13,0.08
2013-9-2,92,79,71,78,72,68,95,80,57,29.82,29.73,6,1,6,0.01
2013-9-3,94,77,67,72,67,63,93,73,46,29.88,29.73,6,1,6,0.05
2013-9-4,91,76,66,70,66,62,91,72,48,29.99,29.87,7,1,7,0.00
2013-9-5,93,77,65,74,67,62,93,74,42,30.03,29.95,7,1,7,0.00
2013-9-6,88,73,62,66,63,59,89,71,47,30.09,29.97,11,1,11,0.00
2013-9-7,89,74,63,69,64,60,91,74,51,30.03,29.89,7,1,7,0.00
2013-9-8,91,75,63,74,66,61,93,76,49,29.90,29.84,6,0,6,0.00
2013-9-9,94,77,66,73,68,63,92,75,46,30.03,29.90,6,1,6,0.00
2013-9-10,94,76,65,78,68,62,91,78,50,30.14,30.03,6,1,6,0.11
2013-9-11,95,78,65,74,68,62,91,74,47,30.11,29.99,8,1,8,0.00
2013-9-12,81,74,72,70,68,67,86,82,66,29.85,29.77,9,1,9,0.05
2013-9-13,89,75,65,67,61,52,88,65,41,29.80,29.70,12,2,12,0.00
2013-9-14,81,66,56,59,54,50,84,66,45,30.00,29.80,11,2,11,0.00
2013-9-15,85,69,57,68,60,53,88,75,55,30.10,29.99,7,1,7,0.00
2013-9-16,90,74,63,71,63,59,89,71,45,30.04,29.95,8,1,8,0.00
2013-9-17,75,69,65,62,58,56,79,70,57,30.19,30.04,12,3,12,0.00
2013-9-18,78,67,59,62,58,54,84,72,54,30.17,30.04,7,2,7,0.00
2013-9-19,89,70,58,69,62,54,89,76,51,30.07,29.96,5,0,5,0.00
2013-9-20,87,72,61,80,65,57,88,80,54,29.97,29.81,10,1,10,0.00
2013-9-21,75,68,63,69,63,57,86,83,80,29.82,29.56,12,2,12,2.54
2013-9-22,82,67,56,64,56,49,83,69,50,29.79,29.62,9,1,9,0.00
2013-9-23,82,67,60,63,49,27,60,52,30,29.93,29.79,8,2,8,0.00
2013-9-24,82,68,56,63,29,0,54,27,1,29.95,29.81,8,1,8,0.00
2013-9-25,70,64,62,11,7,5,7,1,1,29.82,29.75,6,1,6,1.09
2013-9-26,76,65,58,57,18,2,51,13,1,29.91,29.75,7,2,8,0.01
2013-9-27,78,65,55,58,22,0,52,19,1,30.05,29.91,10,2,10,0.00
2013-9-28,74,63,54,56,21,-1,52,20,1,30.12,30.02,9,2,11,0.00
2013-9-29,76,64,56,57,18,0,52,15,1,30.05,29.91,7,1,7,0.00
2013-9-30,81,66,56,60,23,0,51,18,1,29.97,29.88,7,1,7,0.00
2013-10-1,85,67,54,62,23,-1,51,18,1,30.02,29.93,9,1,9,0.01
2013-10-2,86,69,57,64,24,1,50,17,1,30.03,29.95,7,1,7,0.00
2013-10-3,86,70,58,65,26,2,51,18,1,30.01,29.94,7,1,7,0.00
2013-10-4,89,71,58,68,23,2,50,15,1,30.03,29.96,6,0,6,0.00
2013-10-5,91,72,60,68,26,3,50,16,1,30.01,29.91,6,0,6,0.00
2013-10-6,88,71,60,67,23,3,50,14,1,29.93,29.75,8,1,8,0.00
2013-10-7,78,68,59,42,13,2,40,6,1,29.86,29.68,9,2,9,1.50
2013-10-8,70,62,57,52,30,1,55,34,1,30.05,29.85,15,4,15,0.00
2013-10-9,73,61,53,51,33,-2,55,37,1,30.08,29.97,13,3,13,0.00
2013-10-10,71,56,46,53,12,-7,53,16,1,30.00,29.86,4,0,4,0.00
2013-10-11,60,58,56,3,2,0,1,1,1,29.86,29.84,2,0,2,0.00
2013-10-24,62,60,57,42,41,40,55,50,45,29.94,29.91,6,2,6,0.00
2013-10-27,71,60,55,52,25,-1,52,28,1,29.96,29.91,6,1,6,0.00
2013-10-28,72,60,50,52,13,-4,51,13,1,30.10,29.95,10,1,10,0.01
2013-10-29,76,60,50,56,18,-5,52,19,1,30.17,30.07,7,1,7,0.00
2013-10-30,80,65,54,60,21,-1,51,18,1,30.13,30.01,11,2,11,0.00
2013-10-31,74,64,54,47,13,-1,40,9,1,30.03,29.75,10,2,10,0.00
2013-11-1,72,66,58,12,8,2,4,1,1,29.75,29.54,13,4,13,0.13
2013-11-2,71,56,46,51,20,-27,58,27,1,29.85,29.59,12,2,12,0.02
2013-11-3,65,51,41,43,31,-12,59,48,1,30.19,29.85,7,1,7,0.17
2013-11-4,60,48,39,38,27,-12,58,46,1,30.33,30.18,9,2,9,0.00
2013-11-5,60,48,37,44,19,-5,58,35,1,30.36,30.23,12,3,12,0.00
2013-11-6,71,58,51,53,13,-4,53,15,1,30.23,29.96,8,2,10,0.00
2013-11-7,71,56,47,53,18,-5,57,24,1,29.97,29.81,10,2,12,0.01
2013-11-8,61,48,35,32,25,13,61,43,16,30.13,29.97,11,3,15,0.00
2013-11-9,61,44,31,36,21,-18,60,41,7,30.18,30.02,9,1,9,0.01
2013-11-10,76,56,41,45,28,-12,56,35,6,30.05,29.96,4,1,8,0.00
2013-11-11,66,49,37,35,29,20,60,47,31,30.16,29.96,4,1,7,0.00
2013-11-12,64,45,30,41,24,2,56,44,20,30.25,29.88,12,4,22,0.00
2013-11-13,53,34,20,24,16,7,65,49,28,30.34,30.23,4,1,6,0.00
2013-11-15,60,47,30,41,22,-35,58,40,1,30.13,30.00,4,1,4,0.20
2013-11-16,69,59,56,45,5,0,43,4,1,29.94,29.87,6,2,6,0.00
2013-11-17,68,59,55,10,3,0,6,1,1,29.92,29.62,4,1,4,0.82
2013-11-18,74,62,52,55,23,-26,57,24,1,29.73,29.58,15,3,15,0.02
2013-11-19,60,49,42,32,28,25,54,44,29,29.91,29.70,15,3,15,0.00
2013-11-20,54,44,37,33,30,25,64,57,43,30.12,29.96,12,4,12,0.00
2013-11-21,53,48,44,35,21,-34,64,40,1,30.15,30.05,11,4,11,0.09
2013-11-22,63,56,49,6,0,-5,1,1,1,30.08,29.82,8,2,8,0.01
2013-11-23,61,54,40,46,18,-28,58,26,1,29.89,29.77,13,2,13,0.02
2013-11-24,46,35,26,24,15,9,56,44,31,30.16,29.88,16,3,16,0.00
2013-11-25,42,32,21,19,14,9,67,48,30,30.18,29.64,6,2,6,0.00
2013-11-26,46,39,32,23,-10,-46,63,7,1,29.97,28.94,11,3,11,3.40
2013-11-27,46,39,29,28,9,-44,63,35,1,29.84,28.83,15,4,15,0.15
2013-11-28,49,34,21,30,21,11,69,58,45,30.42,29.49,7,1,7,0.00
2013-11-29,56,41,26,28,16,-39,62,40,4,30.54,29.92,8,2,8,0.00
2013-11-30,35,33,31,22,22,19,65,62,61,30.56,30.10,5,1,5,0.00
2013-12-1,56,40,32,39,19,-43,61,45,1,30.35,29.56,7,1,7,0.00
2013-12-2,60,46,31,43,11,-47,58,27,1,30.00,29.38,6,1,6,0.00
2013-12-3,64,53,49,35,-4,-35,36,9,1,29.93,29.43,8,1,8,0.00